Regional Weather Roundup
Issued by NWS Sterling, VA

Home | Current Version | Previous Version | Text Only | Print | Product List | Glossary Off
Versions: 1 2 3 4 5 6 7 8 9 10 11 12 13 14 15 16 17 18 19 20 21 22 23 24 25 26 27 28

000
ASUS41 KLWX 180511
RWRLWX

REGIONAL WEATHER ROUNDUP
NATIONAL WEATHER SERVICE BALTIMORE MD/WASHINGTON DC
100 AM EDT WED OCT 18 2017

Note: "FAIR" indicates few or no clouds below 12,000 feet
with no significant weather and/or obstructions to visibility.
 TC=TEMPERATURE CELSIUS

 * =Non NWS site. Station does not report precipitation (e.g. rain,
    snow, etc.), thunder, or fog.

DCZ001-MDZ009-015-VAZ040>042-051-053>054-180600-
WASHINGTON METRO

CITY           SKY/WX    TMP DP  RH WIND       PRES   REMARKS
WASHINGTON NAT CLEAR     49  41  74 SW6       30.34F
DULLES         CLEAR     42  39  89 CALM      30.33F
ANDREWS AFB    CLEAR     43  40  89 CALM      30.32F
FT BELVOIR     CLEAR     41  39  95 CALM      30.34S
QUANTICO       CLEAR     45  43  93 NW7       30.35F
COLLEGE PARK*  CLEAR     42  40  96 CALM      30.33S
LEESBURG*      CLEAR     43  41  93 CALM      30.34S
MANASSAS*      CLEAR     39  38  96 CALM      30.34F
GAITHERSBURG*  CLEAR     40  39  97 CALM      30.33F

$$

MDZ006>007-011-014-180600-
BALTIMORE METRO

CITY           SKY/WX    TMP DP  RH WIND       PRES   REMARKS
BWI AIRPORT    CLEAR     42  42 100 CALM      30.33S
MD SCIENCE CTR   N/A     52  41  66 MISG      30.33F
MARTIN STATE   CLEAR     45  43  93 W3        30.34F
ANNAPOLIS      CLEAR     50  46  86 CALM      30.33S
FORT MEADE*    CLEAR     37  37 100 CALM      30.36S

$$

MDZ012-015-019>023-180600-
MARYLAND EASTERN SHORE

CITY           SKY/WX    TMP DP  RH WIND       PRES   REMARKS
OCEAN CITY     CLEAR     39  39 100 CALM      30.35S
SALISBURY      CLEAR     39  37  92 CALM      30.34F
CAMBRIDGE*     CLEAR     39  37  93 CALM      30.34S
EASTON*        CLEAR     43  39  86 CALM      30.37S

$$

MDZ017>025-180600-
SOUTHERN MARYLAND

CITY           SKY/WX    TMP DP  RH WIND       PRES   REMARKS
PATUXENT RIVER CLEAR     39  32  76 CALM      30.33F
ST INIGOES     CLEAR     41  40  96 NE3       30.33F
LEONARDTOWN*   NOT AVBL

$$

MDZ003>005-180600-
NORTH CENTRAL MARYLAND

CITY           SKY/WX    TMP DP  RH WIND       PRES   REMARKS
FREDERICK*     CLEAR     43  43 100 CALM      30.36S
HAGERSTOWN APT CLEAR     49  36  61 SE3       30.32S
WESTMINSTER*   CLEAR     48  36  61 CALM      30.32S

$$

MDZ501>502-180600-
WESTERN MARYLAND

CITY           SKY/WX    TMP DP  RH WIND       PRES   REMARKS
OAKLAND*       CLEAR     43  32  65 W5        30.30S
CUMBERLAND*    CLEAR     43  41  93 CALM      30.36S

$$

VAZ025>031-180600-
SHENANDOAH VALLEY

CITY           SKY/WX    TMP DP  RH WIND       PRES   REMARKS
WINCHESTER*    CLEAR     37  36  93 CALM      30.32S
FRONT ROYAL*   CLEAR     39  37  93 MISG      30.32R
LURAY*         CLEAR     39  37  93 CALM      30.33S
NEW MARKET*    CLEAR     38  36  95 CALM      30.32S
STAUNTON*      CLEAR     37  34  87 CALM      30.35S
WAYNESBORO*    PTCLDY    41  37  87 CALM      30.33S

$$

WVZ021-048>050-054>055-180600-
EASTERN WEST VIRGINIA PANHANDLE

CITY           SKY/WX    TMP DP  RH WIND       PRES   REMARKS
MARTINSBURG    CLEAR     41  37  86 CALM      30.31S
PETERSBURG*    CLEAR     38  37  97 CALM      30.34R

$$

VAZ036>039-050-180600-
CENTRAL FOOTHILLS

CITY           SKY/WX    TMP DP  RH WIND       PRES   REMARKS
CHARLOTTESVILL CLEAR     43  41  93 CALM      30.33F
CULPEPER*      CLEAR     37  35  92 CALM      30.35S
ORANGE*        CLEAR     37  36  93 CALM      30.34S
GORDONSVILLE*  CLEAR     39  39 100 CALM      30.33F
WARRENTON*     CLEAR     35  32  89 CALM      30.33S

$$

VAZ055>057-180600-
NORTH AND CENTRAL PIEDMONT

CITY           SKY/WX    TMP DP  RH WIND       PRES   REMARKS
FREDERICKSBRG* CLEAR     41  41 100 CALM      30.34S
STAFFORD*      CLEAR     36  36 100 CALM      30.38S

$$

NCZ024-NYZ072-PAZ021-071-VAZ022-071-180600-
OTHER REGIONAL OBSERVATIONS

CITY           SKY/WX    TMP DP  RH WIND       PRES   REMARKS
NEW YORK CITY  CLEAR     53  37  54 SW8       30.31S
PHILADELPHIA   CLEAR     50  43  77 W5        30.32S
PITTSBURGH     CLEAR     47  40  76 S3        30.30S
ROANOKE        CLEAR     42  39  89 W3        30.35F
RICHMOND       CLEAR     43  40  89 CALM      30.35S
RALEIGH        CLEAR     42  41  96 CALM      30.33F

$$

ANZ530>537-180600-
MARINE OBSERVATIONS

STATION/POSITION TIME  TEMP    WIND        PRES
                       AIR SEA DIR/SP/G
                 (UTC) (F)     (DEG/KT/KT) (MB)
THOMAS PT LIGHT  0500   56 68  240/ 10/ 11   N/A
BALT KEY BRIDGE  0448   51     250/  9/ 10 1026.8F
COVE POINT       0448   55     210/  5/  6 1027.8F
LEWISETTA        0448   51 64  240/  4/  5 1027.2F
SOLOMONS ISLAND  0448   53 69  340/  3/  4 1026.8F
PINEY POINT      0448          210/  3/  4   N/A

$$





USA.gov is the U.S. government's official web portal to all federal, state and local government web resources and services.